Погода в Верхней Экони

Россия / Хабаровский край     50°25′24″N   137°04′56″E
темп.,
°C
ветер,
м/с
пор.,
м/с
влажн.,
%
обл.,
%
осадки,
мм/ч
давл.,
гПа
погр.,
м
22 апреля, чт
чт2201:00+4ю116871 0.0 102210
04:00+2юв11721 0.0 102310
07:00+3ююв22710 0.0 102356
10:00+9ю58495 0.0 1022479
13:00+15ю710331 0.0 1020877
16:00+18ююз7102915 0.0 10181005
19:00+17ююз6123632 0.0 1017413
22:00+11ююв225394 0.0 101825
23 апреля, пт
пт2301:00+9ю33585 0.0 101739
04:00+8ю2363100 0.0 101744
07:00+8ю2468100 0.0 101789
10:00+14ю344957 0.0 1017327
13:00+19св1237100 0.0 1017807
16:00+11с81069100 0.1 1018437
19:00+5с81484100 1.3 1020589
22:00+2с71595100 6.7 1021675
24 апреля, сб
сб2401:00+1с81493100 2.5 1021661
04:00+1с71274100 3.2 1021648
07:000с511655 0.0 1022561
10:00+4с34420 0.0 1020763
13:00+9ссз1535100 0.0 10172245
16:00+9з4637100 0.0 10152148
19:00+7сз1349100 0.4 101481
22:00+3с36645 0.5 1013150
25 апреля, вс
вс2501:00+1ссз31069100 0.1 1013272
04:00+1с71458100 0.1 1014637
07:00+1с713495 0.0 10151036
10:00+5с8103612 0.0 10162152
13:00+6с7927100 0.0 10163692
16:00+7с582097 0.0 10163321
19:00+5ссз3533100 0.0 1017725
22:00+3ссз4843100 0.0 1020269
26 апреля, пн
пн2601:000сз22595 0.0 102020
04:00−1с22585 0.0 102112
07:00+1ю12525 0.0 102198
10:00+6ю554573 0.0 10201017
13:00+9ююз5634100 0.0 10191719
16:00+10ю6632100 0.0 10171246
19:00+9ю5939100 0.0 1017442
22:00+6ююв2550100 0.0 1018100